Location: Bittkow
(50.3000°N, 19.0000°E)
Time: 22:26:19
(UTC+00:00)

ATLAS 2AS CENTAUR R/B - Pass Details

Date: 19 September 2020
Orbit: 939 x 1273 km, 63.7° (Epoch: 19 October)

Event Time Altitude Azimuth Distance (km) Brightness Sun altitude
Rises 02:42:16 0° 313° (NW) 4,195 5.6 -16.9°
Reaches altitude 10° 02:45:13 10° 318° (NW) 3,194 5.0 -16.5°
Maximum altitude 02:52:46 57° 37° (NE) 1,358 3.5 -15.3°
Drops below altitude 10° 02:59:44 10° 115° (ESE) 2,954 5.7 -14.3°
Sets 03:02:22 0° 120° (ESE) 3,860 6.3 -13.9°
